Terminal Aerodrome Forecast
Issued by NWS Chicago, IL

Home | Current Version | Previous Version | Graphics & Text | Print | Product List | Glossary On
Versions: 1 2 3 4 5 6 7 8 9 10 11 12 13 14 15 16 17 18 19 20 21 22 23 24 25 26 27 28 29 30 31 32 33 34 35 36 37 38 39
000
FTUS43 KLOT 232300 RRA
TAFRFD
TAF
KRFD 232342Z 2400/2424 20004KT 6SM BR OVC025
     FM240300 VRB03KT 4SM BR OVC012
     FM240900 VRB03KT 1/2SM FG OVC005
     FM241200 VRB03KT 1/4SM FG BKN005
     FM241430 21006KT P6SM SCT010 BKN025
     FM241800 21008KT P6SM SCT025 SCT250=

USA.gov is the U.S. government's official web portal to all federal, state and local government web resources and services.